Regional Weather Roundup
Issued by NWS Upton, NY

Current Version | Previous Version | Graphics & Text | Print | Product List | Glossary Off
Versions: 1 2 3 4 5 6 7 8 9 10 11 12 13 14 15 16 17 18 19 20 21 22 23 24 25 26 27 28 29 30 31 32 33 34 35 36 37 38 39 40 41 42 43 44 45 46 47 48 49 50

000
ASUS41 KOKX 261205
RWROKX

REGIONAL WEATHER ROUNDUP
NATIONAL WEATHER SERVICE NEW YORK NY
800 AM EDT SAT JUL 26 2014

NOTE: "FAIR" INDICATES FEW OR NO CLOUDS BELOW 12,000 FEET WITH NO
SIGNIFICANT WEATHER AND/OR OBSTRUCTIONS TO VISIBILITY.

NYZ071-072-176-178-NJZ106-104-261300-
NEW YORK CITY METRO AREA


CITY           SKY/WX    TMP DP  RH WIND       PRES   REMARKS
CENTRAL PARK   PTSUNNY   71  56  58 VRB3      30.03S
LAGUARDIA APRT NOT AVBL
KENNEDY INTL   PTSUNNY   72  58  61 W8        30.02R
NEWARK/LIBERTY PTSUNNY   70  59  68 SW7       30.01R
BRNX BOT. GARD   N/A     72  59  64 SE2       30.03R
TETERBORO      MOSUNNY   73  58  59 S3        29.99S
$$

NYZ177-179-078>081-261300-
LONG ISLAND NEW YORK

CITY           SKY/WX    TMP DP  RH WIND       PRES   REMARKS
FARMINGDALE    PTSUNNY   71  60  68 SW6       30.02R
ISLIP          PTSUNNY   74  61  63 SW8       30.00S
SHIRLEY        MOSUNNY   72  62  71 VRB3      30.02S
WESTHAMPTON    MOSUNNY   72  65  78 SW7       30.03S
MONTAUK POINT    N/A     72  67  84 SW5       30.03R
$$

NYZ052-065-067-261300-
HUDSON VALLEY

CITY           SKY/WX    TMP DP  RH WIND       PRES   REMARKS
WHITE PLAINS   PTSUNNY   69  60  73 CALM      30.01R
NEWBURGH       MOSUNNY   63  61  94 CALM      30.01S
MONTGOMERY     PTSUNNY   65  60  84 SW5       30.00R
POUGHKEEPSIE   PTSUNNY   67  62  84 SE5       29.99R
ALBANY         PTSUNNY   66  60  81 S7        29.98R
$$

NJZ001-105-106-008-010-013-015-019>022-104-261300-
NEW JERSEY

CITY           SKY/WX    TMP DP  RH WIND       PRES   REMARKS
NEWARK/LIBERTY PTSUNNY   70  59  68 SW7       30.01R
TETERBORO      MOSUNNY   73  58  59 S3        29.99S
CALDWELL       MOSUNNY   68  58  70 CALM      30.01S
MORRISTOWN     MOSUNNY   68  63  83 CALM      30.02R
SOMERVILLE     NOT AVBL
LINDEN         FAIR      71  60  69 CALM      30.03R
SUSSEX         PTSUNNY   64  60  87 SW3       30.01S
ANDOVER          N/A     64  61  90 CALM      30.02R
TRENTON        PTSUNNY   68  62  81 S5        30.01S
MILLVILLE      PTSUNNY   68  64  87 CALM      30.02S
ATLANTIC CITY  PTSUNNY   72  63  73 SW7       30.03R
WRIGHTSTOWN    CLOUDY    67  63  86 SW5       30.01R
TOMS RIVER     PTSUNNY   66  63  88 CALM      30.03S
BELMAR         CLOUDY    68  61  77 SW6       30.02S
$$

PAZ047>061-062-071-261300-
EASTERN PENNSYLVANIA

CITY           SKY/WX    TMP DP  RH WIND       PRES   REMARKS
PHILADELPHIA   CLOUDY    70  61  73 S7        30.01S
ALLENTOWN      CLOUDY    63  60  90 CALM      30.02R
SCRANTON       PTSUNNY   63  53  70 CALM      30.01S
$$

CTZ002-004>006-009-010-012-RIZ004-006-007-MAZ004-011-015-261300-
SOUTHERN NEW ENGLAND
 IN CT

CITY           SKY/WX    TMP DP  RH WIND       PRES   REMARKS
BRADLEY INTL   PTSUNNY   67  61  81 S5        29.98S
HARTFORD       MOSUNNY   69  64  84 S6        29.99S
DANBURY        MOSUNNY   68  59  73 W3        30.02S
WTRBRY/OXFORD  NOT AVBL
BRIDGEPORT     MOSUNNY   72  64  76 SW6       30.00S
MERIDEN        MOSUNNY   68  63  84 SE3       30.00S
NEW HAVEN      PTSUNNY   73  65  75 VRB3      30.00S
CHESTER        FAIR      68  64  88 SW3       30.02S
GROTON         PTSUNNY   70  67  90 SW8       30.00R
WILLIMANTIC    CLOUDY    64  60  87 CALM      30.01S

 IN RI

CITY           SKY/WX    TMP DP  RH WIND       PRES   REMARKS
PROVIDENCE     PTSUNNY   70  65  84 SW7       30.00S
BLOCK ISLAND   PTSUNNY   72  66  83 SW13      30.02S
WESTERLY       PTSUNNY   72  67  84 SW7       30.02R

 IN MA

CITY           SKY/WX    TMP DP  RH WIND       PRES   REMARKS
BOSTON         PTSUNNY   68  59  73 SW8       29.98S
WORCESTER      PTSUNNY   67  59  75 SW12      30.00S
WESTFIELD      MOSUNNY   66  61  84 S5        29.98S
PROVINCETOWN   PTSUNNY   70  64  83 SW12      30.00S
NANTUCKET      MOSUNNY   68  65  90 SW7       30.03R
$$

ANZ330-335-338-340-345-350-353-355-261300-
COASTAL MARINE OBSERVATIONS


STATION/POSITION TIME  SKY/WX   TEMP    WIND        PRES    VSBY  WAVE
                                AIR SEA DIR/SP/G                  HT/PER
                 (UTC)          (F)     (DEG/KT/KT) (MB)    (MI)  (FT/S)
NY HARB ENTRANCE NOT AVBL
4S FIRE IS       NOT AVBL
23SW MTP         1200            73 71              1016.2          3/ 8
HUDSON CANYON    1200            72 74  260/  8/  8 1017.0          2/ 7
EXECUTION ROCKS  1200            73 71  210/  4/  8   N/A
WESTERN LI SOUND 1200            71     180/  6/  8   N/A           0
CENTRAL LI SOUND 1100            71 71  240/ 12/ 12   N/A           1/ 3
EASTERN LI SOUND 1100            70 67  230/  8/ 10   N/A
ROBBINS REEF     1200            70     230/  6/  8   N/A
$$


>>>>>>>>>>>>>>>>>>>>>>>>>>>> KEY <<<<<<<<<<<<<<<<<<<<<<<<<<<
>                                                          <
>     SKY/WX - SKY CONDITION/PRESENT WEATHER               <
>     TMP    - TEMPERATURE IN FAHRENHEIT                   <
>     DP     - DEWPOINT IN FAHRENHEIT                      <
>     RH     - RELATIVE HUMIDITY IN PERCENT                <
>     WIND   - DIRECTION AND SPEED IN MPH                  <
>     PRES   - MEAN SEA LEVEL PRESSURE IN INCHES OF HG     <
>     WCI    - WIND CHILL INDEX                            <
>     VSB    - VISIBILITY IN MILES                         <
>     HX     - HEAT INDEX                                  <
>     TC     - TEMPERATURE IN CELSIUS                      <
>     VRB    - VARIABLE WIND DIRECTION                     <
>                                                          <
>>>>>>>>>>>>>>>>>>>>>>>>>>>> KEY <<<<<<<<<<<<<<<<<<<<<<<<<<<




USA.gov is the U.S. government's official web portal to all federal, state and local government web resources and services.